Overview Statistics Trail Chart Weather Telemetry Raw packets
 

This is the latest recevied weather packets stored in our database for station/object KB1WCR. If no packets are shown the sender has not sent any weather packets the latest 10 day(s).

<< 8 9 10 11 12 13 14 >>
Time Temp. Humidity Pressure Rain* Wind** Luminosity Snow
1788373095 18.89° C 81% 1022.9 hPa 0 mm - 204 W/m² -
1788372790 18.89° C 82% 1023 hPa 0 mm - 205 W/m² -
1788372484 19.44° C 83% 1023.2 hPa 0 mm - 202 W/m² -
1788372180 19.44° C 80% 1023.2 hPa 0 mm - 227 W/m² -
1788371875 19.44° C 82% 1023.1 hPa 0 mm - 233 W/m² -
1788371571 19.44° C 82% 1023.1 hPa 0 mm - 225 W/m² -
1788371266 19.44° C 82% 1023 hPa 0 mm - 220 W/m² -
1788370963 20° C 80% 1023 hPa 0 mm - 252 W/m² -
1788370657 19.44° C 81% 1022.8 hPa 0 mm - 257 W/m² -
1788370357 19.44° C 81% 1022.9 hPa 0 mm - 274 W/m² -
1788370051 20° C 80% 1022.8 hPa 0 mm - 286 W/m² -
1788369746 20° C 79% 1022.8 hPa 0 mm - 292 W/m² -
1788369441 20° C 79% 1022.7 hPa 0 mm - 293 W/m² -
1788369136 20° C 79% 1022.7 hPa 0 mm - 308 W/m² -
1788368832 20° C 77% 1022.8 hPa 0 mm - 291 W/m² -
1788368528 20° C 78% 1022.7 hPa 0 mm - 313 W/m² -
1788368222 20.56° C 78% 1022.7 hPa 0 mm - 312 W/m² -
1788367916 20.56° C 79% 1022.7 hPa 0 mm - 313 W/m² -
1788367612 20° C 80% 1022.9 hPa 0 mm - 331 W/m² -
1788367311 20° C 77% 1022.8 hPa 0 mm - 375 W/m² -
1788367006 20° C 77% 1022.9 hPa 0 mm - 383 W/m² -
1788366706 20° C 77% 1023 hPa 0 mm - 372 W/m² -
1788366404 20° C 79% 1023.1 hPa 0 mm - 351 W/m² -
1788366099 20° C 76% 1023.2 hPa 0 mm - 310 W/m² -
1788365794 20° C 77% 1023.3 hPa 0 mm - 285 W/m² -

* Rain latest hour (hover to see other rain measurements)
** Current wind speed in m/s (hover to see current wind gust speed)